AUA556C LIRF-LOWW

Flight info

Callsign AUA556C
Flight time 1h 12m
Altitude 36000
Route SOVAN DCT AMTEL DCT GAVRA DCT LAPNA LAPNA2W
Aircraft A320/M-SDE3FGHIRWY/LB1

Departure

Time 2026-05-05 16:18
Airport Rome–Fiumicino Leonardo da Vinci International Airport (LIRF)

Arrival

Time 2026-05-05 17:30
Airport Vienna International Airport (LOWW)
Time Latitude Longitude Altitude Speed Heading
2026-05-05 15:38 41.79593 12.25770 14 ft 0 kts 115°
2026-05-05 16:07 41.79599 12.25750 14 ft 4 kts 107°
2026-05-05 16:08 41.79607 12.25719 15 ft 2 kts 116°
2026-05-05 16:08 41.79614 12.25693 17 ft 4 kts 70°
2026-05-05 16:08 41.79605 12.25676 15 ft 0 kts 26°
2026-05-05 16:08 41.79623 12.25688 15 ft 4 kts 26°
2026-05-05 16:09 41.79647 12.25704 14 ft 4 kts 26°
2026-05-05 16:09 41.79654 12.25708 14 ft 1 kts 26°
2026-05-05 16:11 41.79739 12.25733 14 ft 10 kts
2026-05-05 16:12 41.79796 12.25764 15 ft 9 kts 25°
2026-05-05 16:12 41.79928 12.25857 14 ft 17 kts 25°
2026-05-05 16:13 41.80200 12.26025 14 ft 11 kts 25°
2026-05-05 16:13 41.80265 12.26065 15 ft 10 kts 24°
2026-05-05 16:13 41.80324 12.26101 14 ft 9 kts 25°
2026-05-05 16:14 41.80451 12.26177 18 ft 13 kts 14°
2026-05-05 16:14 41.80545 12.26298 16 ft 11 kts 70°
2026-05-05 16:15 41.80624 12.26585 16 ft 22 kts 69°
2026-05-05 16:15 41.80726 12.26956 14 ft 13 kts 69°
2026-05-05 16:16 41.80844 12.27023 13 ft 9 kts 341°
2026-05-05 16:16 41.80950 12.26971 13 ft 8 kts 341°
2026-05-05 16:17 41.80959 12.26929 13 ft 0 kts 250°
2026-05-05 16:17 41.80890 12.26684 14 ft 66 kts 249°
2026-05-05 16:18 41.80273 12.24466 49 ft 175 kts 250°
2026-05-05 16:18 41.79885 12.22941 796 ft 171 kts 244°
2026-05-05 16:18 41.79216 12.19904 2510 ft 176 kts 266°
2026-05-05 16:19 41.79582 12.18315 3275 ft 184 kts 301°
2026-05-05 16:19 41.80450 12.16974 3759 ft 202 kts 306°
2026-05-05 16:19 41.82329 12.13821 4911 ft 216 kts 304°
2026-05-05 16:20 41.84349 12.10868 6429 ft 220 kts 320°
2026-05-05 16:20 41.87407 12.09159 7236 ft 267 kts 341°
2026-05-05 16:21 41.91306 12.07814 8286 ft 301 kts 343°
2026-05-05 16:22 41.97268 12.05809 10998 ft 310 kts 351°
2026-05-05 16:22 42.01882 12.05371 11664 ft 349 kts 354°
2026-05-05 16:23 42.06795 12.05006 13094 ft 359 kts 354°
2026-05-05 16:23 42.09303 12.04794 13832 ft 363 kts 353°
2026-05-05 16:23 42.14396 12.04315 15157 ft 370 kts 353°
2026-05-05 16:24 42.16977 12.04060 15818 ft 373 kts 352°
2026-05-05 16:24 42.19565 12.03653 16450 ft 375 kts 347°
2026-05-05 16:24 42.24758 12.02482 17740 ft 382 kts 347°
2026-05-05 16:25 42.27362 12.01890 18360 ft 386 kts 347°
2026-05-05 16:25 42.32703 12.00681 19480 ft 392 kts 347°
2026-05-05 16:25 42.35412 12.00068 20045 ft 394 kts 347°
2026-05-05 16:26 42.40876 11.98831 21213 ft 400 kts 347°
2026-05-05 16:26 42.46382 11.97590 22315 ft 406 kts 347°
2026-05-05 16:27 42.49181 11.96963 22845 ft 409 kts 347°
2026-05-05 16:27 42.52001 11.96331 23369 ft 412 kts 347°
2026-05-05 16:27 42.54841 11.95692 23834 ft 415 kts 347°
2026-05-05 16:27 42.57702 11.95044 24252 ft 417 kts 347°
2026-05-05 16:28 42.60574 11.94389 24690 ft 419 kts 346°
2026-05-05 16:28 42.63418 11.93736 25105 ft 420 kts 346°
2026-05-05 16:28 42.66310 11.93075 25511 ft 422 kts 346°
2026-05-05 16:28 42.69216 11.92414 25911 ft 424 kts 346°
2026-05-05 16:29 42.72140 11.91750 26315 ft 426 kts 346°
2026-05-05 16:29 42.75075 11.91084 26707 ft 428 kts 345°
2026-05-05 16:29 42.78022 11.90410 27080 ft 430 kts 345°
2026-05-05 16:29 42.80986 11.89718 27472 ft 430 kts 343°
2026-05-05 16:30 42.83820 11.88644 27829 ft 426 kts 334°
2026-05-05 16:30 42.86517 11.86969 28208 ft 422 kts 326°
2026-05-05 16:30 42.89113 11.85062 28569 ft 424 kts 326°
2026-05-05 16:30 42.91712 11.83157 28923 ft 425 kts 326°
2026-05-05 16:31 42.94332 11.81239 29257 ft 427 kts 326°
2026-05-05 16:31 42.96955 11.79319 29566 ft 429 kts 326°
2026-05-05 16:31 42.99561 11.77410 29874 ft 430 kts 326°
2026-05-05 16:31 43.02213 11.75469 30162 ft 432 kts 326°
2026-05-05 16:32 43.04880 11.73511 30410 ft 434 kts 326°
2026-05-05 16:32 43.07547 11.71548 30635 ft 435 kts 326°
2026-05-05 16:32 43.10183 11.69602 30883 ft 436 kts 326°
2026-05-05 16:32 43.12858 11.67630 31204 ft 435 kts 326°
2026-05-05 16:33 43.15525 11.65667 31536 ft 433 kts 326°
2026-05-05 16:33 43.18273 11.63915 31865 ft 439 kts 334°
2026-05-05 16:33 43.21248 11.62843 32180 ft 447 kts 344°
2026-05-05 16:33 43.24382 11.62527 32499 ft 456 kts 354°
2026-05-05 16:34 43.27540 11.63014 32784 ft 466 kts
2026-05-05 16:34 43.30694 11.64177 33081 ft 470 kts
2026-05-05 16:34 43.33843 11.65406 33374 ft 470 kts
2026-05-05 16:34 43.36990 11.66633 33688 ft 469 kts
2026-05-05 16:35 43.40127 11.67854 33981 ft 469 kts
2026-05-05 16:35 43.43238 11.69065 34273 ft 468 kts
2026-05-05 16:35 43.46374 11.70285 34569 ft 466 kts
2026-05-05 16:35 43.49502 11.71502 34858 ft 465 kts
2026-05-05 16:36 43.52581 11.72702 35135 ft 464 kts
2026-05-05 16:36 43.55689 11.73914 35395 ft 463 kts
2026-05-05 16:36 43.58809 11.75128 35641 ft 462 kts
2026-05-05 16:36 43.61865 11.76317 35883 ft 461 kts
2026-05-05 16:37 43.64965 11.77523 36009 ft 461 kts
2026-05-05 16:37 43.68055 11.78727 36028 ft 460 kts
2026-05-05 16:37 43.74211 11.81206 36026 ft 463 kts 14°
2026-05-05 16:38 43.79938 11.85513 36022 ft 477 kts 33°
2026-05-05 16:38 43.84900 11.91623 36016 ft 480 kts 38°
2026-05-05 16:39 43.89850 11.97825 36004 ft 479 kts 38°
2026-05-05 16:39 43.94802 12.04039 35998 ft 479 kts 38°
2026-05-05 16:40 43.99707 12.10231 35990 ft 478 kts 38°
2026-05-05 16:40 44.04635 12.16458 35997 ft 477 kts 38°
2026-05-05 16:41 44.09552 12.22683 36001 ft 477 kts 38°
2026-05-05 16:41 44.14419 12.28861 35987 ft 476 kts 38°
2026-05-05 16:42 44.19319 12.35107 35990 ft 475 kts 39°
2026-05-05 16:42 44.24167 12.41300 35994 ft 475 kts 39°
2026-05-05 16:43 44.29035 12.47528 35994 ft 474 kts 39°
2026-05-05 16:43 44.33894 12.53766 35993 ft 474 kts 39°
2026-05-05 16:44 44.38745 12.60001 35992 ft 473 kts 39°
2026-05-05 16:44 44.43594 12.66245 35990 ft 472 kts 39°
2026-05-05 16:45 44.48402 12.72458 35985 ft 472 kts 39°
2026-05-05 16:45 44.53222 12.78694 35985 ft 471 kts 39°
2026-05-05 16:46 44.58032 12.84930 35979 ft 470 kts 39°
2026-05-05 16:46 44.62800 12.91129 35983 ft 469 kts 40°
2026-05-05 16:47 44.67602 12.97390 35981 ft 469 kts 40°
2026-05-05 16:47 44.72355 13.03606 35981 ft 468 kts 40°
2026-05-05 16:48 44.77130 13.09873 35982 ft 467 kts 40°
2026-05-05 16:48 44.81861 13.16079 35977 ft 467 kts 40°
2026-05-05 16:49 44.86625 13.22334 35984 ft 467 kts 40°
2026-05-05 16:49 44.91343 13.28563 35992 ft 466 kts 41°
2026-05-05 16:50 44.96063 13.34815 35997 ft 466 kts 41°
2026-05-05 16:50 45.00004 13.40032 36003 ft 465 kts 41°
2026-05-05 16:51 45.05493 13.47316 36011 ft 465 kts 41°
2026-05-05 16:51 45.09415 13.52544 36007 ft 465 kts 41°
2026-05-05 16:52 45.14127 13.58828 36016 ft 464 kts 41°
2026-05-05 16:52 45.18839 13.65118 36014 ft 464 kts 41°
2026-05-05 16:53 45.23502 13.71370 36017 ft 464 kts 41°
2026-05-05 16:53 45.28187 13.77685 36012 ft 464 kts 41°
2026-05-05 16:54 45.32874 13.84014 36014 ft 464 kts 41°
2026-05-05 16:54 45.37532 13.90304 36013 ft 464 kts 41°
2026-05-05 16:55 45.42215 13.96640 36017 ft 463 kts 42°
2026-05-05 16:55 45.46883 14.02983 36021 ft 463 kts 42°
2026-05-05 16:56 45.51528 14.09295 36032 ft 462 kts 41°
2026-05-05 16:56 45.56186 14.15634 36035 ft 462 kts 42°
2026-05-05 16:57 45.60827 14.21982 36034 ft 461 kts 42°
2026-05-05 16:57 45.65428 14.28302 36032 ft 461 kts 42°
2026-05-05 16:58 45.70059 14.34654 36028 ft 460 kts 42°
2026-05-05 16:58 45.74683 14.41009 36017 ft 459 kts 42°
2026-05-05 16:59 45.79285 14.47354 36009 ft 459 kts 42°
2026-05-05 16:59 45.83850 14.53673 35999 ft 459 kts 42°
2026-05-05 17:00 45.88442 14.60043 35995 ft 458 kts 42°
2026-05-05 17:00 45.93001 14.66387 35990 ft 457 kts 42°
2026-05-05 17:01 45.97568 14.72753 35989 ft 457 kts 42°
2026-05-05 17:01 46.02133 14.79118 35987 ft 456 kts 42°
2026-05-05 17:02 46.06689 14.85496 35983 ft 456 kts 42°
2026-05-05 17:02 46.11210 14.91853 35963 ft 456 kts 42°
2026-05-05 17:03 46.15781 14.98276 35972 ft 456 kts 42°
2026-05-05 17:03 46.20300 15.04632 35975 ft 456 kts 42°
2026-05-05 17:04 46.24840 15.11061 35963 ft 456 kts 42°
2026-05-05 17:04 46.29347 15.17458 35957 ft 456 kts 42°
2026-05-05 17:05 46.33869 15.23883 35953 ft 455 kts 42°
2026-05-05 17:05 46.38387 15.30315 35947 ft 455 kts 42°
2026-05-05 17:06 46.42912 15.36770 35933 ft 455 kts 42°
2026-05-05 17:06 46.47421 15.43218 35896 ft 454 kts 42°
2026-05-05 17:07 46.49644 15.46412 35179 ft 453 kts 43°
2026-05-05 17:07 46.51924 15.49576 34232 ft 454 kts 37°
2026-05-05 17:07 46.54480 15.52256 33453 ft 451 kts 28°
2026-05-05 17:07 46.57259 15.54310 32593 ft 449 kts 20°
2026-05-05 17:08 46.60157 15.56069 31671 ft 451 kts 20°
2026-05-05 17:08 46.63044 15.57821 31017 ft 447 kts 20°
2026-05-05 17:08 46.65899 15.59561 30403 ft 443 kts 20°
2026-05-05 17:08 46.68727 15.61292 29767 ft 440 kts 21°
2026-05-05 17:09 46.71546 15.63020 29098 ft 436 kts 21°
2026-05-05 17:09 46.74329 15.64732 28449 ft 432 kts 21°
2026-05-05 17:09 46.77059 15.66414 27817 ft 428 kts 21°
2026-05-05 17:09 46.79804 15.68102 27215 ft 425 kts 21°
2026-05-05 17:10 46.82521 15.69772 26607 ft 422 kts 21°
2026-05-05 17:10 46.85221 15.71433 26024 ft 419 kts 21°
2026-05-05 17:10 46.87871 15.73067 25465 ft 416 kts 21°
2026-05-05 17:10 46.90528 15.74705 24919 ft 413 kts 21°
2026-05-05 17:11 46.93168 15.76335 24372 ft 411 kts 21°
2026-05-05 17:11 46.95795 15.77957 23843 ft 408 kts 21°
2026-05-05 17:11 46.98404 15.79571 23316 ft 406 kts 21°
2026-05-05 17:11 47.01027 15.81067 22726 ft 402 kts 13°
2026-05-05 17:12 47.03751 15.81950 22159 ft 399 kts 10°
2026-05-05 17:12 47.06465 15.82782 21608 ft 397 kts 10°
2026-05-05 17:12 47.09134 15.83596 21099 ft 395 kts 10°
2026-05-05 17:12 47.11812 15.84411 20587 ft 393 kts 10°
2026-05-05 17:13 47.14489 15.85224 20078 ft 391 kts 10°
2026-05-05 17:13 47.17140 15.86031 19584 ft 389 kts 10°
2026-05-05 17:13 47.19785 15.86837 19104 ft 387 kts 10°
2026-05-05 17:13 47.22411 15.87641 18634 ft 385 kts 10°
2026-05-05 17:14 47.25023 15.88442 18162 ft 382 kts 10°
2026-05-05 17:14 47.27629 15.89237 17652 ft 380 kts 10°
2026-05-05 17:14 47.30221 15.90024 17160 ft 378 kts 10°
2026-05-05 17:14 47.32795 15.90807 16669 ft 376 kts 10°
2026-05-05 17:15 47.35327 15.91581 16188 ft 374 kts 10°
2026-05-05 17:15 47.37877 15.92364 15719 ft 372 kts 10°
2026-05-05 17:15 47.40410 15.93140 15267 ft 370 kts 10°
2026-05-05 17:15 47.42934 15.93914 14821 ft 368 kts 10°
2026-05-05 17:16 47.45434 15.94686 14386 ft 367 kts 10°
2026-05-05 17:16 47.47927 15.95458 13965 ft 365 kts 10°
2026-05-05 17:16 47.50411 15.96227 13531 ft 364 kts 10°
2026-05-05 17:16 47.52886 15.96992 13063 ft 362 kts 10°
2026-05-05 17:17 47.55308 15.97739 12593 ft 359 kts 10°
2026-05-05 17:17 47.57755 15.98495 12120 ft 357 kts 10°
2026-05-05 17:17 47.60185 15.99245 11633 ft 354 kts 10°
2026-05-05 17:17 47.62595 15.99992 11180 ft 352 kts 10°
2026-05-05 17:18 47.64987 16.00732 10723 ft 348 kts 10°
2026-05-05 17:18 47.67324 16.01457 10269 ft 346 kts 10°
2026-05-05 17:18 47.69673 16.02189 9922 ft 340 kts 10°
2026-05-05 17:18 47.71953 16.02899 9802 ft 328 kts 10°
2026-05-05 17:19 47.74145 16.03580 9671 ft 316 kts 10°
2026-05-05 17:19 47.76263 16.04240 9494 ft 306 kts 10°
2026-05-05 17:19 47.78334 16.04887 9150 ft 303 kts 10°
2026-05-05 17:19 47.80399 16.05534 8763 ft 301 kts 10°
2026-05-05 17:20 47.82432 16.06169 8365 ft 300 kts 10°
2026-05-05 17:20 47.84465 16.06805 7993 ft 298 kts
2026-05-05 17:20 47.86480 16.07434 7630 ft 296 kts
2026-05-05 17:20 47.88499 16.08072 7256 ft 295 kts 11°
2026-05-05 17:21 47.90448 16.09045 6859 ft 294 kts 19°
2026-05-05 17:21 47.92326 16.10173 6459 ft 293 kts 20°
2026-05-05 17:21 47.94206 16.11318 6112 ft 290 kts 21°
2026-05-05 17:22 47.97952 16.13573 5239 ft 289 kts 21°
2026-05-05 17:22 47.99810 16.14654 4827 ft 289 kts 20°
2026-05-05 17:22 48.01691 16.15728 4372 ft 288 kts 20°
2026-05-05 17:22 48.03561 16.16794 3919 ft 287 kts 21°
2026-05-05 17:23 48.05435 16.17845 3546 ft 287 kts 21°
2026-05-05 17:23 48.07284 16.18885 3464 ft 286 kts 21°
2026-05-05 17:23 48.09157 16.19915 3476 ft 288 kts 20°
2026-05-05 17:23 48.10999 16.20929 3466 ft 273 kts 20°
2026-05-05 17:24 48.12712 16.21888 3474 ft 253 kts 23°
2026-05-05 17:24 48.14299 16.22910 3468 ft 244 kts 25°
2026-05-05 17:24 48.15842 16.23966 3471 ft 241 kts 26°
2026-05-05 17:24 48.17326 16.24972 3477 ft 228 kts 26°
2026-05-05 17:25 48.18556 16.26308 3456 ft 219 kts 58°
2026-05-05 17:25 48.19032 16.27649 3500 ft 213 kts 75°
2026-05-05 17:25 48.19320 16.30472 3500 ft 203 kts 101°
2026-05-05 17:25 48.19017 16.32488 3475 ft 195 kts 119°
2026-05-05 17:26 48.18453 16.34268 3305 ft 185 kts 123°
2026-05-05 17:26 48.17899 16.35983 3066 ft 181 kts 122°
2026-05-05 17:26 48.17370 16.37626 2829 ft 173 kts 123°
2026-05-05 17:26 48.16857 16.39215 2615 ft 166 kts 123°
2026-05-05 17:27 48.16373 16.40717 2385 ft 153 kts 123°
2026-05-05 17:27 48.15930 16.42086 2188 ft 139 kts 122°
2026-05-05 17:27 48.15528 16.43329 2023 ft 131 kts 123°
2026-05-05 17:27 48.15135 16.44539 1845 ft 128 kts 123°
2026-05-05 17:28 48.14741 16.45750 1668 ft 129 kts 124°
2026-05-05 17:28 48.14350 16.46956 1511 ft 128 kts 123°
2026-05-05 17:28 48.13966 16.48140 1351 ft 128 kts 122°
2026-05-05 17:28 48.13581 16.49326 1206 ft 126 kts 124°
2026-05-05 17:29 48.13202 16.50502 1053 ft 125 kts 124°
2026-05-05 17:29 48.12825 16.51685 861 ft 124 kts 123°
2026-05-05 17:29 48.12438 16.52859 719 ft 125 kts 123°
2026-05-05 17:29 48.12068 16.54006 613 ft 110 kts 121°
2026-05-05 17:30 48.11792 16.54829 610 ft 65 kts 117°
2026-05-05 17:30 48.11623 16.55358 618 ft 48 kts 116°
2026-05-05 17:30 48.11516 16.55727 618 ft 32 kts 107°
2026-05-05 17:30 48.11503 16.55964 621 ft 16 kts 83°
2026-05-05 17:31 48.11506 16.56095 610 ft 9 kts 72°
2026-05-05 17:31 48.11547 16.56143 610 ft 6 kts 26°
2026-05-05 17:31 48.11559 16.56151 610 ft 2 kts 27°
2026-05-05 17:31 48.11575 16.56164 621 ft 3 kts 27°
2026-05-05 17:32 48.11594 16.56178 610 ft 4 kts 27°
2026-05-05 17:32 48.11619 16.56199 616 ft 4 kts 32°
2026-05-05 17:32 48.11641 16.56226 612 ft 4 kts 42°
2026-05-05 17:32 48.11674 16.56254 622 ft 9 kts 27°
2026-05-05 17:33 48.11724 16.56292 624 ft 8 kts 26°
2026-05-05 17:33 48.11761 16.56340 617 ft 7 kts 81°
2026-05-05 17:33 48.11738 16.56428 618 ft 11 kts 116°
2026-05-05 17:33 48.11703 16.56538 617 ft 13 kts 115°
2026-05-05 17:34 48.11662 16.56663 614 ft 13 kts 116°
2026-05-05 17:34 48.11639 16.56734 613 ft 4 kts 115°
2026-05-05 17:34 48.11621 16.56774 614 ft 3 kts 166°
2026-05-05 17:34 48.11591 16.56752 613 ft 6 kts 206°
2026-05-05 17:35 48.11561 16.56730 613 ft 3 kts 206°
2026-05-05 17:35 48.11557 16.56727 620 ft 0 kts 206°
2026-05-05 17:35 48.11556 16.56726 620 ft 0 kts 206°
2026-05-05 17:51 48.11556 16.56727 610 ft 0 kts 206°